Location: Corcelles
(46.1547°N, 4.7234°E)
Time: 04:44:18
(UTC+00:00)

NOSS 2-1 (D) - Pass Details

Date: 14 July 2020
Orbit: 447 x 1756 km, 63.3° (Epoch: 01 August)

Event Time Altitude Azimuth Distance (km) Brightness Sun altitude
Rises 00:29:56 0° 321° (NW) 3,024 7.7 -21.5°
Reaches altitude 10° 00:31:57 10° 322° (NW) 2,246 6.9 -21.5°
Maximum altitude 00:37:08 83° 51° (NE) 933 4.4 -21.3°
Enters shadow 00:43:40 13° 140° (SE) 2,834 6.6 -21.0°
